Weather History for Fort Lauderdale, FL

Change the Weather History Date:

Wednesday, June 19, 2013

  Actual Average Record
Temperature  
Mean Temperature 85 °F -  
Max Temperature 91 °F 89 °F 94 °F (1953)
Min Temperature 79 °F 73 °F 62 °F (1955)
Cooling Degree Days 20    
Growing Degree Days 35 (Base 50)    
Moisture  
Dew Point 75 °F    
Average Humidity 72    
Maximum Humidity 90    
Minimum Humidity 52    
Precipitation  
Precipitation 0.00 in - - ()
Sea Level Pressure  
Sea Level Pressure 30.04 in    
Wind  
Wind Speed 6 mph (SE)    
Max Wind Speed 15 mph    
Max Gust Speed 21 mph    
Visibility 10 miles    
Events      
Averages and records for this station are not official NWS values.
T = Trace of Precipitation, MM = Missing Value Source: NWS Daily Summary

Daily Weather History Graph

Daily Weather History Graph

Search for Another Location

Airport:

Trip Planner

Search our weather history database for the weather conditions in past years. The results will help you decide how hot, cold, wet, or windy it might be!

Date:

Astronomy

Jun. 19, 2013 Rise Set
Actual Time 6:28 AM EDT 8:15 PM EDT
Civil Twilight 6:02 AM EDT 8:41 PM EDT
Nautical Twilight 5:31 AM EDT 9:13 PM EDT
Astronomical Twilight 4:57 AM EDT 9:46 PM EDT
Moon 4:21 PM EDT 2:54 AM EDT
Length of Visible Light 14h 39m
Length of Day
13h 46m
Waxing Gibbous, 80% of the Moon is Illuminated
Jun 19
Waxing Gibbous
Jun 23
Full
Jun 30
Last Quarter
Jul 8
New
Jul 15
First Quarter

Hourly Weather History & Observations

Time (EDT) Temp. Heat Index Dew Point Humidity Pressure Visibility Wind Dir Wind Speed Gust Speed Precip Events Conditions
12:53 AM 82.0 °F 88.6 °F 75.0 °F 79% 30.04 in 10.0 mi SSE 5.8 mph - N/A   Clear
1:53 AM 82.0 °F 89.4 °F 75.9 °F 82% 30.03 in 10.0 mi SSE 3.5 mph - N/A   Clear
2:53 AM 82.0 °F 89.4 °F 75.9 °F 82% 30.04 in 10.0 mi South 3.5 mph - N/A   Clear
3:53 AM 80.1 °F 85.4 °F 75.9 °F 87% 30.04 in 10.0 mi Calm Calm - N/A   Clear
4:53 AM 81.0 °F 87.3 °F 75.9 °F 85% 30.03 in 10.0 mi Calm Calm - N/A   Scattered Clouds
5:53 AM 79.0 °F - 75.9 °F 90% 30.02 in 10.0 mi East 4.6 mph - N/A   Mostly Cloudy
6:53 AM 81.0 °F 87.3 °F 75.9 °F 85% 30.04 in 10.0 mi Calm Calm - N/A   Clear
7:53 AM 82.9 °F 90.8 °F 75.9 °F 79% 30.06 in 10.0 mi SSE 3.5 mph - N/A   Scattered Clouds
8:53 AM 84.0 °F 91.2 °F 73.9 °F 72% 30.06 in 10.0 mi SSE 9.2 mph - N/A   Mostly Cloudy
9:53 AM 87.1 °F 95.4 °F 73.9 °F 65% 30.06 in 10.0 mi South 6.9 mph - N/A   Mostly Cloudy
10:53 AM 88.0 °F 95.6 °F 73.0 °F 61% 30.05 in 10.0 mi SE 12.7 mph - N/A   Scattered Clouds
11:53 AM 89.1 °F 97.0 °F 73.0 °F 59% 30.06 in 10.0 mi SSE 8.1 mph - N/A   Partly Cloudy
12:53 PM 90.0 °F 99.0 °F 73.9 °F 59% 30.04 in 10.0 mi SE 13.8 mph 19.6 mph N/A   Scattered Clouds
1:53 PM 91.0 °F 97.6 °F 71.1 °F 52% 30.03 in 10.0 mi ESE 11.5 mph 19.6 mph N/A   Scattered Clouds
2:53 PM 90.0 °F 96.9 °F 72.0 °F 55% 30.02 in 10.0 mi ESE 11.5 mph - N/A   Scattered Clouds
3:53 PM 90.0 °F 97.9 °F 73.0 °F 57% 30.01 in 10.0 mi SSE 12.7 mph - N/A   Scattered Clouds
4:53 PM 87.1 °F 95.4 °F 73.9 °F 65% 30.01 in 10.0 mi SE 15.0 mph 20.7 mph N/A   Scattered Clouds
5:53 PM 87.1 °F 96.3 °F 75.0 °F 67% 30.01 in 10.0 mi SSE 11.5 mph - N/A   Scattered Clouds
6:53 PM 84.9 °F 93.3 °F 75.0 °F 72% 30.03 in 10.0 mi SE 6.9 mph - N/A   Mostly Cloudy
7:53 PM 84.0 °F 91.9 °F 75.0 °F 74% 30.03 in 10.0 mi SSE 6.9 mph - N/A   Scattered Clouds
8:53 PM 82.9 °F 90.2 °F 75.0 °F 77% 30.04 in 10.0 mi SE 8.1 mph - N/A   Clear
9:53 PM 82.9 °F 90.2 °F 75.0 °F 77% 30.06 in 10.0 mi SE 6.9 mph - N/A   Partly Cloudy
10:53 PM 82.9 °F 90.2 °F 75.0 °F 77% 30.05 in 10.0 mi ESE 8.1 mph - N/A   Clear
11:53 PM 82.9 °F 90.2 °F 75.0 °F 77% 30.06 in 10.0 mi SE 6.9 mph - N/A   Clear